www.pogodaiklimat.ru

Погода и климат >> Архив погоды >> Гондурас >> Ла-Эсперанса


ПОГОДА в Ла-Эсперансе

  • Прогноз погоды в Ла-Эсперансе
  • Монитор погоды в Ла-Эсперансе

АРХИВ ПОГОДЫ в Ла-Эсперансе

Время (UTC), дата Ветер
(напр.,м/с)
 
Видим.   Явления Облачность Т
(С)
Тd
(С)
f
(%)
Тe
(С)
Тes
(С)
Комфортность P
(гПа)
Po
(гПа)
Тmin
(С)
Tmax
(С)
R
(мм)
R24
(мм)
S
(см)
18 18.06 В 2 20 км 6/6 720 м
[Cu hum Ci fib]
+24.8 +17.1 62 +29 +37 душно 1012.0 836.5 +12.0 +24.8
21 18.06 В 2 20 км 6/5 720 м
[Cu med, cong Ci fib]
+26.2 +16.3 54 +30 +35 душно 1009.7 835.0
00 19.06 СВ 2 20 км 8/4 720 м
[Cb cap Ci ing]
+22.4 +16.5 69 +27 +27 душно 1011.2 835.2 +12.0 +26.8
12 19.06 В 1 6000 м 4/1 540 м
[Sc diur, vesp Ci fib]
+16.1 +15.7 97 +17 +17 1011.1 835.8 +15.4 +26.8
15 19.06 СВ 2 20 км 6/5 660 м
[Cu hum Ci fib]
+21.8 +17.2 75 +26 +32 душно 1011.8 836.3
18 19.06 В 3 20 км 6/6 720 м
[Cu med, cong Ci fib]
+24.4 +17.6 66 +28 +36 душно 1010.9 836.0 +15.4 +24.4
21 19.06 В 1 20 км 5/5 720 м
[Cb cap Ci ing]
+23.4 +17.1 68 +29 +35 душно 1009.4 834.9
00 20.06 штиль 0 20 км 8/4 660 м
[Cb cap Ci ing]
+21.8 +16.8 73 +26 +26 душно 1010.0 834.9 +15.4 +25.6
12 20.06 СВ 2 6000 м 9/6 540 м
[Sc diur, vesp Cs]
+16.7 +15.8 94 +17 +17 1010.3 835.0 +14.4 +25.6
15 20.06 В 3 10 км 9/3 600 м
[Sc diur, vesp Cs]
+21.7 +16.8 74 +26 +32 душно 1010.3 835.6
18 20.06 В 3 20 км 9/6 720 м
[Cu med, cong Ci fib]
+24.0 +17.2 66 +28 +34 душно 1011.0 836.1 +14.4 +24.0
21 20.06 В 2 10 км в посл. час гроза 9/5 720 м
[Cb cap Ci ing]
+21.0 +17.7 81 +26 +30 душно 1011.3 835.3
00 21.06 В 2 10 км {гроза} 9/4 660 м
[Cb cap Ac cuf Ci ing]
+20.3 +17.4 83 +24 +24 комфорт 1010.8 835.5 +14.4 +26.6
12 21.06 С 2 20 км 9/6 600 м
[Sc diur, vesp Ac trans Ci fib]
+16.9 +15.6 92 +17 +17 1012.1 836.4 +15.0 +26.6
15 21.06 С 2 20 км 8/6 660 м
[Cu hum Ci fib]
+21.1 +17.5 80 +25 +29 комфорт 1012.0 837.2
18 21.06 С 2 20 км 9/3 720 м
[Cu hum Ci fib]
+22.8 +17.4 72 +28 +40 душно 1012.0 837.0 +15.0 +24.0
21 21.06 СВ 1 20 км 9/4 720 м
[Cu hum As op Ci fib]
+2.2 +17.3 100 +2 +7 1011.5 836.0
00 22.06 С 2 8000 м гроза без осадков 9/4 720 м
[Cb cap As op Ci ing]
+17.6 +15.8 89 +18 +18 1014.0 837.3 +15.0 +26.0 8
12 22.06 штиль 0 20 км 9/1 600 м
[Sc diur, vesp Ac trans Ci fib]
+16.4 +16.1 98 +16 +16 1011.6 835.9 +15.5 +26.0 5
15 22.06 СВ 1 20 км 8/6 720 м
[Cu hum Ci fib]
+20.8 +17.7 82 +26 +31 душно 1012.7 837.3
18 22.06 С 1 20 км 8/6 720 м
[Cu med, cong Ci fib]
+22.8 +17.1 70 +28 +37 душно 1012.0 837.0 +15.5 +22.8
21 22.06 СВ 2 8000 м слаб. дождь {гроза} 9/5 720 м
[Cb cap As op Ci ing]
+17.8 +16.6 93 +18 +22 1012.8 836.7 12
00 23.06 С 1 20 км в посл. час гроза {дождь} 9/9 720 м
[]
+18.0 +17.1 94 +19 +19 1012.8 837.3 +15.5 +24.5 23
12 23.06 штиль 0 20 км 5/1 660 м
[Sc diur, vesp Ci fib]
+14.8 +15.4 100 +14 +15 1014.6 837.0 +14.5 +24.5 1
15 23.06 С 2 20 км 9/3 720 м
[Cu hum Ci fib]
+20.0 +15.6 76 +23 +30 комфорт 1012.7 837.4
18 23.06 СВ 2 20 км 4/3 720 м
[Cu hum Ci fib]
+23.7 +14.7 57 +26 +41 жарко 1012.0 837.0 +14.5 +23.7
21 23.06 СВ 2 20 км 4/4 720 м
[Cu hum]
+24.2 +13.8 52 +26 +33 жарко 1009.6 835.8
00 24.06 СВ 1 20 км 4/1 720 м
[Cu hum Ci fib]
+21.6 +13.1 58 +24 +24 комфорт 1012.1 836.1 +14.5 +24.7
12 24.06 штиль 0 20 км 4/0
[Ci fib]
+9.8 +9.1 95 +9 +9 1014.3 836.8 +9.0 +24.7
15 24.06 В 1 20 км 3/0
[Ac As]
+22.4 +8.0 40 +24 +37 комфорт 1012.8 837.7
18 24.06 В 1 20 км 1/1 600 м
[Cu Sc As op Ci]
+24.0 +9.0 38 +25 +47 комфорт 1013.1 836.9 +9.0 +24.0
21 24.06 штиль 0 20 км 3/3 600 м
[Cu Sc As op Ci]
+25.4 +10.0 38 +26 +37 жарко 1011.8 835.8
00 25.06 штиль 0 20 км 4/4 720 м
[Cu med, cong Ci fib]
+22.8 +11.7 50 +25 +25 комфорт 1012.9 805.6 +9.0 +26.2
12 25.06 штиль 0 10 км 1/1 540 м
[Sc diur, vesp]
+11.4 +10.6 95 +11 +11 1012.9 836.1 +10.6 +26.2

 

Местоположение метеостанции Ла-Эсперанса (Гондурас): широта 14.32 долгота -88.16 высота над уровнем моря 1674 м.

В архиве по умолчанию представлена погода в Ла-Эсперансе за последнюю неделю. Архивные данные за месяц целиком и за предыдущие месяцы, начиная с января 2011 года, Вы можете получить, выбрав интересующий диапазон дат из раскрывающегося списка и нажав кнопку "Ввод!".


*Определитесь, кто Вы:
робот инопланетянин человек

Внимание! Время в таблицах - всемирное. Для получения местного времени необходимо прибавить поправку, которая равна -6 ч.

Смотрите также архив погоды в соседних городах и на ближайших метеорологических станциях:

Погода в Санта-Роза-де-Копане (Гондурас) (84 км)
Погода в Тегусигальпе (Гондурас) (107 км)
Погода в Нуэва Окотепеке (Гондурас) (111 км)
Погода в Ла-Лиме (Гондурас) (128 км)
Погода в Амапале (Гондурас) (129 км)
Погода в Йоро (Гондурас) (147 км)
Погода в Чолутеке (Гондурас) (155 км)
Погода в Пуэрто-Барриосе (Гватемала) (163 км)
Погода в Теле (Гондурас) (172 км)
Погода в Ла-Сейбе (Гондурас) (210 км)

Пояснения к столбцам:

Ветер - указаны скорость ветра в м/с - средняя за 10 мин, порывы в срок и между сроками (в фигурных скобках) и направление, откуда дует ветер: С - северный, СВ - северо-восточный, В - восточный, ЮВ - юго-восточный, Ю - южный, ЮЗ - юго-западный, З - западный, СЗ - северо-западный.
Видимость - горизонтальная дальность видимости в метрах или километрах. При видимости от 1 до 10 км при отсутствии осадков обычно наблюдается дымка, при ухудшении видимости до 1 км и менее - туман. В сухую погоду видимость может ухудшаться дымом, пылью или мглою.
Явления - указаны атмосферные явления, наблюдавшиеся в срок или в последний час перед сроком; фигурными скобками обозначены явления, наблюдавшиеся между сроками (за 1-3 часа до срока); квадратными скобками обозначены град или гололедные отложения с указанием их диаметра в мм.
Облачность - указаны через наклонную черту общая и нижняя облачность в баллах и высота нижней границы облаков в метрах; квадратными скобками обозначены формы облаков: Ci - перистые, Cs - перисто-слоистые, Cc - перисто-кучевые, Ac - высококучевые, As - высокослоистые, Sc - слоисто-кучевые, Ns - слоисто-дождевые, Cu - кучевые, Cb - кучево-дождевые. Подробнее классификацию облаков см. в Атласе облаков (PDF).
T - Температура воздуха - температура, измеренная на высоте 2 м над землей.
Td - Температура точки росы - температура, при понижении до которой содержащийся в воздухе водяной пар достигнет насыщения.
f - Относительная влажность воздуха - влажноcть воздуха, измеренная на высоте 2 м над землей.
Te - Эффективная температура - температура, которую ощущает одетый по сезону человек в тени. Характеристика душности погоды. При расчете учитывается влияние влажности воздуха и скорости ветра на теплоощущения человека.
Tes - Эффективная температура на солнце - температура, которую ощущает человек, с поправкой на солнечный нагрев. Характеристика знойности погоды. Зависит от высоты солнца над горизонтом, облачности и скорости ветра. Ночью, в пасмурную погоду, а также при ветре 12 м/с и более поправка равна нулю.
P - Атмосферное давление - приведенное к уровню моря атмосферное давление.
Po - Атмосферное давление - измеренное на уровне метеостанции атмосферное давление.
Tmin - Минимальная температура - минимум температуры воздуха на высоте 2 м над землей.
Tmax - Максимальная температура - максимум температуры воздуха на высоте 2 м над землей.
R - Количество осадков - Количество выпавших осадков за период времени, мм. При наведении курсора мыши на число - период времени, за который выпало указанное количество осадков.
R24 - Количество осадков - Количество выпавших осадков за 24 часа, мм.
S - Снежный покров - Высота снежного покрова, см. При наведении курсора мыши на число - состояние снежного покрова и степень покрытия местности в баллах.